Algona, IA

9:57 PM CDT on May 25, 2018 (GMT -0500)
Algona Municipal

Weather History for KAXA - January, 2013

Change the Weather History Date:

Wednesday, January 9, 2013

  Actual Average Record
Temperature  
Mean Temperature 30 °F -  
Max Temperature 37 °F 24 °F 51 °F (2002)
Min Temperature 23 °F 9 °F -22 °F (1999)
Degree Days  
Heating Degree Days 35    
Moisture  
Dew Point 28 °F    
Average Humidity 88    
Maximum Humidity 100    
Minimum Humidity 75    
Precipitation  
Precipitation 0.00 in - - ()
Sea Level Pressure  
Sea Level Pressure 30.25 in    
Wind  
Wind Speed 12 mph (SW)    
Max Wind Speed 18 mph    
Max Gust Speed 21 mph    
Visibility 10 miles    
Events      
Averages and records for this station are not official NWS values.
T = Trace of Precipitation, MM = Missing Value Source: NWS Daily Summary

Daily Weather History Graph

Daily Weather History Graph

Search for Another Location

Airport or City:

Astronomy

Jan. 09, 2013 Rise Set
Actual Time 7:47 AM CST 5:01 PM CST
Civil Twilight 7:16 AM CST 5:32 PM CST
Nautical Twilight 6:40 AM CST 6:08 PM CST
Astronomical Twilight 6:06 AM CST 6:42 PM CST
Moon 5:28 AM CST (1/9) 3:03 PM CST (1/9)
Length of Visible Light 10h 16m
Length of Day
9h 13m
Waning Crescent, 6% of the Moon is Illuminated
Jan 9
Waning Crescent
Jan 11
New
Jan 18
First Quarter
Jan 26
Full
Feb 3
Last Quarter

Hourly Weather History & Observations

Time (CST) Temp. Windchill Dew Point Humidity Pressure Visibility Wind Dir Wind Speed Gust Speed Precip Events Conditions
12:15 AM 28.4 °F 19.1 °F 24.8 °F 86% 30.01 in 10.0 mi West 10.4 mph - N/A   Clear
12:35 AM 28.4 °F 18.5 °F 24.8 °F 86% 30.02 in 10.0 mi West 11.5 mph - N/A   Partly Cloudy
12:55 AM 26.6 °F 16.8 °F 24.8 °F 93% 30.02 in 10.0 mi WSW 10.4 mph - N/A   Partly Cloudy
1:15 AM 24.8 °F 14.0 °F 23.0 °F 93% 30.03 in 10.0 mi SW 11.5 mph - N/A   Clear
1:35 AM 24.8 °F 13.4 °F 23.0 °F 93% 30.04 in 10.0 mi WSW 12.7 mph - N/A   Clear
1:55 AM 26.6 °F 14.7 °F 24.8 °F 93% 30.05 in 10.0 mi West 15.0 mph - N/A   Clear
2:15 AM 28.4 °F 17.5 °F 24.8 °F 86% 30.06 in 10.0 mi West 13.8 mph - N/A   Clear
2:35 AM 26.6 °F 15.7 °F 24.8 °F 93% 30.08 in 10.0 mi West 12.7 mph - N/A   Clear
2:55 AM 26.6 °F 14.7 °F 24.8 °F 93% 30.09 in 10.0 mi West 15.0 mph 20.7 mph N/A   Clear
3:15 AM 26.6 °F 14.7 °F 24.8 °F 93% 30.10 in 10.0 mi West 15.0 mph - N/A   Clear
3:35 AM 26.6 °F 16.8 °F 24.8 °F 93% 30.10 in 10.0 mi West 10.4 mph - N/A   Clear
3:55 AM 26.6 °F 16.2 °F 24.8 °F 93% 30.10 in 10.0 mi West 11.5 mph - N/A   Clear
4:15 AM 26.6 °F 15.2 °F 26.6 °F 100% 30.11 in 10.0 mi West 13.8 mph - N/A   Clear
4:35 AM 28.4 °F 17.0 °F 26.6 °F 93% 30.12 in 10.0 mi West 15.0 mph - N/A   Clear
4:55 AM 28.4 °F 16.6 °F 26.6 °F 93% 30.12 in 10.0 mi West 16.1 mph - N/A   Clear
5:15 AM 28.4 °F 16.2 °F 26.6 °F 93% 30.12 in 10.0 mi West 17.3 mph - N/A   Clear
5:35 AM 28.4 °F 16.6 °F 26.6 °F 93% 30.13 in 10.0 mi West 16.1 mph - N/A   Clear
5:55 AM 28.4 °F 16.2 °F 26.6 °F 93% 30.13 in 10.0 mi West 17.3 mph - N/A   Clear
6:15 AM 30.2 °F 19.3 °F 26.6 °F 86% 30.13 in 10.0 mi West 15.0 mph - N/A   Clear
6:35 AM 26.6 °F 16.2 °F 24.8 °F 93% 30.15 in 10.0 mi West 11.5 mph - N/A   Clear
6:55 AM 28.4 °F 18.0 °F 24.8 °F 86% 30.15 in 10.0 mi West 12.7 mph - N/A   Clear
7:15 AM 26.6 °F 16.8 °F 24.8 °F 93% 30.17 in 10.0 mi West 10.4 mph - N/A   Clear
7:35 AM 24.8 °F 14.6 °F 23.0 °F 93% 30.18 in 10.0 mi West 10.4 mph - N/A   Clear
7:55 AM 23.0 °F 13.9 °F 21.2 °F 93% 30.20 in 10.0 mi West 8.1 mph - N/A   Clear
8:15 AM 23.0 °F 14.7 °F 21.2 °F 93% 30.21 in 10.0 mi SW 6.9 mph - N/A   Clear
8:35 AM 23.0 °F 13.1 °F 21.2 °F 93% 30.20 in 10.0 mi WSW 9.2 mph - N/A   Clear
8:55 AM 24.8 °F 12.9 °F 23.0 °F 93% 30.24 in 10.0 mi SSW 13.8 mph - N/A   Clear
9:15 AM 26.6 °F 16.2 °F 24.8 °F 93% 30.26 in 10.0 mi SW 11.5 mph - N/A   Clear
9:35 AM 26.6 °F 16.2 °F 23.0 °F 86% 30.27 in 10.0 mi WSW 11.5 mph - N/A   Clear
9:55 AM 26.6 °F 16.8 °F 24.8 °F 93% 30.29 in 10.0 mi WSW 10.4 mph - N/A   Clear
10:15 AM 30.2 °F 20.8 °F 26.6 °F 86% 30.30 in 10.0 mi West 11.5 mph - N/A   Clear
10:35 AM 30.2 °F 20.8 °F 26.6 °F 86% 30.31 in 10.0 mi WSW 11.5 mph - N/A   Clear
10:55 AM 30.2 °F 20.8 °F 26.6 °F 86% 30.33 in 10.0 mi WSW 11.5 mph - N/A   Clear
11:15 AM 32.0 °F 20.5 °F 28.4 °F 87% 30.36 in 10.0 mi SW 18.4 mph - N/A   Clear
11:35 AM 32.0 °F 20.8 °F 28.4 °F 87% 30.35 in 10.0 mi SW 17.3 mph - N/A   Clear
12:15 PM 33.8 °F 22.8 °F 30.2 °F 87% 30.35 in 10.0 mi SW 18.4 mph - N/A   Clear
12:35 PM 33.8 °F 23.5 °F 30.2 °F 87% 30.36 in 10.0 mi SW 16.1 mph - N/A   Clear
12:55 PM 35.6 °F 26.6 °F 30.2 °F 81% 30.37 in 10.0 mi WSW 13.8 mph - N/A   Clear
1:15 PM 35.6 °F 28.0 °F 32.0 °F 87% 30.37 in 10.0 mi SW 10.4 mph - N/A   Clear
1:35 PM 35.6 °F 29.9 °F 32.0 °F 87% 30.37 in 10.0 mi SW 6.9 mph 12.7 mph N/A   Clear
1:55 PM 35.6 °F 28.6 °F 32.0 °F 87% 30.36 in 10.0 mi WSW 9.2 mph - N/A   Clear
2:15 PM 37.4 °F 32.1 °F 32.0 °F 81% 30.35 in 10.0 mi WSW 6.9 mph - N/A   Clear
2:35 PM 37.4 °F 32.8 °F 32.0 °F 81% 30.35 in 10.0 mi SW 5.8 mph - N/A   Clear
2:55 PM 37.4 °F 34.9 °F 32.0 °F 81% 30.34 in 10.0 mi SW 3.5 mph - N/A   Clear
3:15 PM 37.4 °F 34.9 °F 30.2 °F 75% 30.34 in 10.0 mi SW 3.5 mph - N/A   Clear
3:35 PM 37.4 °F - 32.0 °F 81% 30.33 in 10.0 mi Calm Calm - N/A   Clear
3:55 PM 37.4 °F - 30.2 °F 75% 30.34 in 10.0 mi Calm Calm - N/A   Clear
4:15 PM 37.4 °F - 32.0 °F 81% 30.33 in 10.0 mi Calm Calm - N/A   Clear
4:35 PM 35.6 °F 27.1 °F 30.2 °F 81% 30.35 in 10.0 mi South 12.7 mph - N/A   Clear
4:55 PM 33.8 °F 27.7 °F 30.2 °F 87% 30.34 in 10.0 mi South 6.9 mph - N/A   Clear
5:15 PM 32.0 °F 24.2 °F 30.2 °F 93% 30.34 in 10.0 mi South 9.2 mph - N/A   Clear
5:35 PM 32.0 °F 25.6 °F 30.2 °F 93% 30.34 in 10.0 mi SSE 6.9 mph - N/A   Clear
5:55 PM 33.8 °F 28.6 °F 30.2 °F 87% 30.33 in 10.0 mi SE 5.8 mph - N/A   Clear
6:15 PM 32.0 °F 24.8 °F 28.4 °F 87% 30.33 in 10.0 mi SE 8.1 mph - N/A   Clear
6:35 PM 32.0 °F 24.8 °F 30.2 °F 93% 30.33 in 10.0 mi SE 8.1 mph - N/A   Clear
6:55 PM 32.0 °F 24.2 °F 30.2 °F 93% 30.33 in 10.0 mi SSE 9.2 mph - N/A   Clear
7:15 PM 33.8 °F 26.4 °F 28.4 °F 81% 30.33 in 10.0 mi SSE 9.2 mph - N/A   Clear
7:35 PM 33.8 °F 26.4 °F 30.2 °F 87% 30.34 in 10.0 mi SSE 9.2 mph - N/A   Clear
7:55 PM 33.8 °F 25.8 °F 30.2 °F 87% 30.33 in 10.0 mi SSE 10.4 mph - N/A   Clear
8:35 PM 33.8 °F 25.3 °F 30.2 °F 87% 30.33 in 10.0 mi South 11.5 mph - N/A   Clear
8:55 PM 32.0 °F 22.1 °F 30.2 °F 93% 30.33 in 10.0 mi South 13.8 mph - N/A   Clear
9:15 PM 33.8 °F 25.3 °F 30.2 °F 87% 30.32 in 10.0 mi South 11.5 mph - N/A   Clear
9:35 PM 33.8 °F 23.9 °F 30.2 °F 87% 30.32 in 10.0 mi South 15.0 mph - N/A   Clear
9:55 PM 33.8 °F 23.9 °F 30.2 °F 87% 30.32 in 10.0 mi South 15.0 mph - N/A   Clear
10:15 PM 33.8 °F 24.3 °F 28.4 °F 81% 30.31 in 10.0 mi South 13.8 mph - N/A   Clear
10:35 PM 33.8 °F 23.5 °F 28.4 °F 81% 30.32 in 10.0 mi South 16.1 mph - N/A   Clear
10:55 PM 33.8 °F 23.9 °F 28.4 °F 81% 30.32 in 10.0 mi South 15.0 mph - N/A   Clear
11:15 PM 33.8 °F 23.9 °F 28.4 °F 81% 30.32 in 10.0 mi SSE 15.0 mph 20.7 mph N/A   Clear
11:35 PM 33.8 °F 24.3 °F 28.4 °F 81% 30.32 in 10.0 mi SSE 13.8 mph - N/A   Clear
11:55 PM 35.6 °F 25.5 °F 28.4 °F 75% 30.32 in 10.0 mi South 17.3 mph - N/A   Clear